Jackson, MN

2:12 PM CDT on May 21, 2018 (GMT -0500)
Jackson Municipal

Weather History for KMJQ - August, 2013

Change the Weather History Date:

Thursday, August 8, 2013

  Actual Average Record
Temperature  
Mean Temperature 66 °F -  
Max Temperature 73 °F 76 °F 91 °F (2001)
Min Temperature 59 °F 56 °F 50 °F (2008)
Cooling Degree Days 1    
Growing Degree Days 16 (Base 50)    
Moisture  
Dew Point 57 °F    
Average Humidity 76    
Maximum Humidity 94    
Minimum Humidity 64    
Precipitation  
Precipitation 0.33 in - - ()
Sea Level Pressure  
Sea Level Pressure 30.04 in    
Wind  
Wind Speed 5 mph (SSE)    
Max Wind Speed 13 mph    
Max Gust Speed 16 mph    
Visibility 9 miles    
Events Rain    
Averages and records for this station are not official NWS values.
T = Trace of Precipitation, MM = Missing Value Source: NWS Daily Summary

Daily Weather History Graph

Daily Weather History Graph

Search for Another Location

Airport or City:

Astronomy

Aug. 08, 2013 Rise Set
Actual Time 6:17 AM CDT 8:33 PM CDT
Civil Twilight 5:45 AM CDT 9:05 PM CDT
Nautical Twilight 5:05 AM CDT 9:44 PM CDT
Astronomical Twilight 4:21 AM CDT 10:27 PM CDT
Moon 8:10 AM CDT (8/8) 9:05 PM CDT (8/8)
Length of Visible Light 15h 19m
Length of Day
14h 16m
Waxing Crescent, 3% of the Moon is Illuminated
Aug 8
Waxing Crescent
Aug 14
First Quarter
Aug 20
Full
Aug 28
Last Quarter
Sep 5
New

Hourly Weather History & Observations

Time (CDT) Temp. Dew Point Humidity Pressure Visibility Wind Dir Wind Speed Gust Speed Precip Events Conditions
12:13 AM 59.0 °F 51.8 °F 77% 30.06 in 10.0 mi East 4.6 mph - N/A   Clear
12:34 AM 59.0 °F 51.8 °F 77% 30.06 in 10.0 mi Calm Calm - N/A   Clear
12:53 AM 59.0 °F 51.8 °F 77% 30.05 in 10.0 mi ESE 4.6 mph - N/A   Clear
1:14 AM 59.0 °F 51.8 °F 77% 30.06 in 10.0 mi ESE 3.5 mph - N/A   Clear
1:34 AM 59.0 °F 51.8 °F 77% 30.05 in 10.0 mi ESE 5.8 mph - N/A   Clear
1:53 AM 59.0 °F 51.8 °F 77% 30.05 in 10.0 mi ESE 5.8 mph - N/A   Clear
2:14 AM 59.0 °F 51.8 °F 77% 30.04 in 10.0 mi ESE 5.8 mph - N/A   Clear
2:34 AM 59.0 °F 51.8 °F 77% 30.04 in 10.0 mi SE 3.5 mph - N/A   Scattered Clouds
2:53 AM 60.8 °F 51.8 °F 72% 30.05 in 10.0 mi ESE 3.5 mph - N/A   Overcast
3:14 AM 60.8 °F 53.6 °F 77% 30.04 in 10.0 mi East 3.5 mph - N/A   Overcast
3:34 AM 59.0 °F 53.6 °F 82% 30.03 in 10.0 mi SE 3.5 mph - N/A   Mostly Cloudy
3:53 AM 60.8 °F 51.8 °F 72% 30.03 in 10.0 mi SSE 5.8 mph - N/A   Mostly Cloudy
4:14 AM 60.8 °F 51.8 °F 72% 30.04 in 10.0 mi South 6.9 mph - N/A   Mostly Cloudy
4:34 AM 59.0 °F 51.8 °F 77% 30.03 in 10.0 mi South 4.6 mph - N/A   Mostly Cloudy
4:53 AM 60.8 °F 50.0 °F 68% 30.01 in 10.0 mi SE 4.6 mph - N/A   Mostly Cloudy
5:14 AM 59.0 °F 50.0 °F 72% 30.01 in 10.0 mi SE 5.8 mph - N/A   Scattered Clouds
5:34 AM 59.0 °F 51.8 °F 77% 30.00 in 10.0 mi SE 5.8 mph - N/A   Clear
5:53 AM 59.0 °F 51.8 °F 77% 30.00 in 10.0 mi SE 5.8 mph - N/A   Mostly Cloudy
6:14 AM 60.8 °F 50.0 °F 68% 30.01 in 10.0 mi SSE 4.6 mph - N/A   Overcast
6:34 AM 60.8 °F 50.0 °F 68% 30.01 in 10.0 mi SSE 6.9 mph - N/A   Overcast
6:53 AM 60.8 °F 50.0 °F 68% 30.02 in 10.0 mi South 8.1 mph - N/A   Mostly Cloudy
7:14 AM 60.8 °F 50.0 °F 68% 30.02 in 10.0 mi SSE 10.4 mph - N/A   Scattered Clouds
7:34 AM 60.8 °F 51.8 °F 72% 30.02 in 10.0 mi South 10.4 mph - N/A   Mostly Cloudy
7:53 AM 60.8 °F 51.8 °F 72% 30.03 in 10.0 mi SSW 6.9 mph - N/A Rain Light Rain
8:14 AM 60.8 °F 51.8 °F 72% 30.06 in 10.0 mi South 3.5 mph - N/A Rain Rain
8:33 AM 60.8 °F 53.6 °F 77% 30.06 in 10.0 mi Calm Calm - N/A   Light Drizzle
8:53 AM 60.8 °F 53.6 °F 77% 30.09 in 10.0 mi NNE 12.7 mph - N/A   Overcast
9:14 AM 59.0 °F 53.6 °F 82% 30.09 in 5.0 mi NE 9.2 mph - 0.03 in Rain Rain
9:33 AM 59.0 °F 55.4 °F 88% 30.10 in 10.0 mi ENE 6.9 mph - 0.04 in   Overcast
9:53 AM 59.0 °F 55.4 °F 88% 30.10 in 4.0 mi ENE 4.6 mph - 0.09 in Rain Rain
10:14 AM 60.8 °F 55.4 °F 82% 30.10 in 7.0 mi ESE 5.8 mph - 0.02 in Rain Rain
10:33 AM 60.8 °F 55.4 °F 82% 30.09 in 10.0 mi East 8.1 mph - 0.04 in Rain Rain
10:53 AM 62.6 °F 59.0 °F 88% 30.08 in 10.0 mi East 8.1 mph - 0.05 in   Mostly Cloudy
11:13 AM 62.6 °F 57.2 °F 82% 30.08 in 10.0 mi East 8.1 mph - N/A Rain Light Rain
11:33 AM 62.6 °F 59.0 °F 88% 30.08 in 7.0 mi SE 8.1 mph - 0.01 in Rain Light Rain
11:54 AM 62.6 °F 55.4 °F 77% 30.08 in 10.0 mi SSE 6.9 mph - 0.01 in   Overcast
12:13 PM 62.6 °F 57.2 °F 82% 30.08 in 10.0 mi South 5.8 mph - N/A Rain Light Rain
12:33 PM 62.6 °F 55.4 °F 77% 30.08 in 10.0 mi SSE 5.8 mph - N/A   Overcast
12:54 PM 64.4 °F 55.4 °F 73% 30.07 in 10.0 mi SSE 6.9 mph - N/A   Overcast
1:14 PM 64.4 °F 55.4 °F 73% 30.07 in 10.0 mi South 6.9 mph - N/A   Overcast
1:33 PM 66.2 °F 59.0 °F 78% 30.06 in 10.0 mi South 8.1 mph - N/A   Overcast
1:54 PM 68.0 °F 57.2 °F 68% 30.05 in 10.0 mi SE 9.2 mph - N/A   Mostly Cloudy
2:13 PM 69.8 °F 59.0 °F 68% 30.04 in 10.0 mi SSE 10.4 mph - N/A   Scattered Clouds
2:34 PM 69.8 °F 59.0 °F 68% 30.04 in 10.0 mi SSW 6.9 mph - N/A   Mostly Cloudy
2:53 PM 69.8 °F 59.0 °F 68% 30.04 in 10.0 mi SSW 6.9 mph - N/A   Overcast
3:13 PM 69.8 °F 59.0 °F 68% 30.04 in 10.0 mi South 9.2 mph - N/A   Overcast
3:34 PM 71.6 °F 59.0 °F 64% 30.03 in 10.0 mi SW 9.2 mph - N/A   Mostly Cloudy
3:53 PM 71.6 °F 60.8 °F 69% 30.03 in 10.0 mi NW 9.2 mph - N/A   Overcast
4:13 PM 73.4 °F 60.8 °F 65% 30.03 in 10.0 mi SW 9.2 mph 16.1 mph N/A   Scattered Clouds
4:33 PM 73.4 °F 62.6 °F 69% 30.02 in 10.0 mi WSW 6.9 mph - N/A   Mostly Cloudy
4:53 PM 73.4 °F 60.8 °F 65% 30.02 in 10.0 mi WSW 8.1 mph - N/A   Overcast
5:14 PM 73.4 °F 60.8 °F 65% 30.02 in 10.0 mi WSW 10.4 mph - N/A   Overcast
5:33 PM 73.4 °F 62.6 °F 69% 30.02 in 10.0 mi SW 8.1 mph - N/A   Overcast
5:53 PM 73.4 °F 60.8 °F 65% 30.02 in 10.0 mi WSW 5.8 mph - N/A   Mostly Cloudy
6:14 PM 73.4 °F 62.6 °F 69% 30.02 in 10.0 mi SW 5.8 mph - N/A   Scattered Clouds
6:33 PM 73.4 °F 62.6 °F 69% 30.02 in 10.0 mi WSW 3.5 mph - N/A   Mostly Cloudy
6:53 PM 73.4 °F 62.6 °F 69% 30.02 in 10.0 mi WSW 3.5 mph - N/A   Overcast
7:13 PM 73.4 °F 62.6 °F 69% 30.01 in 10.0 mi Calm Calm - N/A   Overcast
7:33 PM 73.4 °F 62.6 °F 69% 30.01 in 10.0 mi Calm Calm - N/A   Mostly Cloudy
7:54 PM 71.6 °F 62.6 °F 73% 30.01 in 10.0 mi South 3.5 mph - N/A   Mostly Cloudy
8:13 PM 71.6 °F 64.4 °F 78% 30.01 in 10.0 mi Calm Calm - N/A   Mostly Cloudy
8:33 PM 69.8 °F 64.4 °F 83% 30.01 in 10.0 mi NNE 3.5 mph - N/A Rain Light Rain
8:53 PM 69.8 °F 62.6 °F 78% 30.01 in 2.5 mi Calm Calm - 0.15 in Rain Light Rain
9:13 PM 69.8 °F 64.4 °F 83% 30.01 in 10.0 mi SE 3.5 mph - N/A   Overcast
9:34 PM 69.8 °F 64.4 °F 83% 30.02 in 5.0 mi Calm Calm - 0.01 in Rain Rain
9:53 PM 68.0 °F 64.4 °F 88% 30.02 in 5.0 mi NNE 6.9 mph - 0.02 in Rain Rain
10:13 PM 68.0 °F 64.4 °F 88% 30.03 in 5.0 mi Calm Calm - 0.01 in Rain Light Rain
10:34 PM 68.0 °F 62.6 °F 83% 30.02 in 7.0 mi East 5.8 mph - 0.01 in   Mostly Cloudy
10:53 PM 66.2 °F 62.6 °F 88% 30.03 in 7.0 mi Calm Calm - 0.01 in   Light Drizzle
11:02 PM 68.0 °F 62.6 °F 83% 30.03 in 7.0 mi ESE 3.5 mph - N/A   Mostly Cloudy
11:25 PM 66.2 °F 64.4 °F 94% 30.03 in 4.0 mi Calm Calm - N/A   Mostly Cloudy
11:45 PM 66.2 °F 64.4 °F 94% 30.03 in 4.0 mi Calm Calm - N/A   Scattered Clouds